Home   Weather   Bnei Brak   Past weeks

Flag for Israel Past Weather in Bnei Brak, Israel — Yesterday and Last 2 Weeks

Now
81 °F

Passing clouds.


Feels Like: 83 °F
Forecast: 76 / 87 °F
Wind: 3 mph from North

Location: Dov Airport

Current Time: Sep 1, 2016 at 8:50:34 AM

Latest Report: Sep 1, 2016 at 7:50 AM


Visibility: N/A

Pressure: 29.83 "Hg

Humidity: 66%

Dew Point: 68 °F

Location of Bnei BrakLocation

Past Weather in Bnei Brak — Graph

°F

Bnei Brak Temperature Yesterday

Maximum temperature yesterday: 86 °F (at 10:50 AM)
Minimum temperature yesterday: 81 °F (at 4:00 AM)
Average temperature yesterday: 83 °F

High & Low Weather Summary for the Past Weeks

 TemperatureHumidityPressure
High88 °F (Aug 17, 12:50 PM)83% (Aug 20, 6:00 AM)29.92 "Hg (Aug 20, 6:00 AM)
Low77 °F (Aug 20, 6:00 AM)55% (Aug 17, 10:50 AM)29.71 "Hg (Aug 18, 5:50 AM)
Average84 °F67%29.82 "Hg
* Reported Aug 17 6:50 AM — Sep 1 6:50 AM, Bnei Brak, Weather by CustomWeather, © 2016

Note: Actual official high and low records may vary slightly from our data, if they occured in-between our weather recording intervals... More about our weather records

Advertising

Bnei Brak Weather History for the Previous 24 Hours

Scroll right to see more
 ConditionsComfort  
Time TempWeatherWind HumidityBarometerVisibility
6:50 AM
Thu, Sep 1
79 °FPassing clouds.3 mph70%29.83 "HgN/A
5:50 AM77 °FPassing clouds.3 mph74%29.83 "HgN/A
5:00 AM79 °FPassing clouds.3 mph70%29.80 "HgN/A
12:50 AM81 °FPassing clouds.7 mph62%29.83 "HgN/A
11:50 PM
Wed, Aug 31
81 °FPassing clouds.5 mph66%29.86 "HgN/A
10:50 PM81 °FPassing clouds.5 mph66%29.86 "HgN/A
9:50 PM82 °FPassing clouds.7 mph62%29.86 "HgN/A
8:50 PM82 °FPassing clouds.7 mph62%29.86 "HgN/A
7:50 PM82 °FPassing clouds.7 mph66%29.83 "HgN/A
6:50 PM82 °FScattered clouds.10 mph66%29.83 "HgN/A
5:50 PM84 °FScattered clouds.10 mph66%29.83 "HgN/A
4:50 PM84 °FScattered clouds.9 mph62%29.83 "HgN/A
3:50 PM86 °FScattered clouds.10 mph59%29.83 "HgN/A
2:50 PM84 °FPassing clouds.9 mph62%29.83 "HgN/A
1:50 PM86 °FPassing clouds.10 mph59%29.86 "HgN/A
12:50 PM86 °FPassing clouds.10 mph59%29.86 "HgN/A
11:50 AM86 °FPassing clouds.8 mph59%29.86 "HgN/A
10:50 AM86 °FPassing clouds.7 mph59%29.86 "HgN/A
9:50 AM84 °FScattered clouds.7 mph62%29.86 "HgN/A
8:50 AM82 °FScattered clouds.6 mph66%29.86 "HgN/A
Weather by CustomWeather, © 2016

See weather overviewHow to use our weather pages